Weather in Thoothukudi

India     8°47′56″N   78°08′44″E
temp.,
°C
wind,
m/s
gust,
m/s
humid.,
%
clouds,
%
prec.,
mm/h
press.,
hPa
HPBL,
m
20 may, fri
fri2023:30+28sw887792 0.0 1009481
02:30+27sw887867 0.0 1007466
05:30+27sw897714 0.0 1007513
08:30+29sw787118 0.0 1009767
11:30+31ssw786487 0.0 1008517
14:30+31ssw121365100 0.3 1006742
17:30+32ssw121361100 0.3 1006599
20:30+29sw91071100 0.0 1008449
21 may, sat
sat2123:30+28sw88715 0.0 1009502
02:30+28sw677479 0.0 1007402
05:30+27sw6777100 0.0 1007410
08:30+29sw5670100 0.0 1009559
11:30+31ssw566245 0.0 1007461
14:30+33ssw10125331 0.0 1004640
17:30+33sw10125413 0.0 1004561
20:30+30sw896489 0.0 1007394
22 may, sun
sun2223:30+29wsw686722 0.0 1007595
02:30+28sw676883 0.0 1006486
05:30+28wsw5672100 0.0 1006415
08:30+29wsw566815 0.0 1008580
11:30+32ssw465914 0.0 1006414
14:30+34w564884 0.0 1003444
17:30+33wnw10134896 0.0 1003458
20:30+30w7106096 0.0 1006381
23 may, mon
mon2323:30+29sw686853 0.0 1006585
02:30+28sw677438 0.0 1004406
05:30+27sw677788 0.0 1005348
08:30+29wsw4667100 0.0 1007520
11:30+30sw5664100 0.0 1006354
14:30+32ssw3563100 0.0 1003468
17:30+32wnw91153100 0.1 1003365
20:30+30wsw686376 0.1 1006353
24 may, tue
tue2423:30+29sw456698 0.1 1006456
02:30+28wsw356593 0.0 1005494
05:30+28sw236995 0.2 1006284
08:30+29wsw346378 0.1 1008529
11:30+30sse446185 0.1 1007527
14:30+30s466937 0.2 1005577
17:30+32wsw246397 0.3 1004294
20:30+31wnw5762100 0.0 1008246